Starlink 30571

operational
NORAD ID: 58066 Int'l Des: 2023-158 Owner: SPXS Country: US Constellation: starlink
LEOCIRCULAR

About Starlink 30571

Description loading...

Live Position

Loading 3D Globe...

Upcoming Passes

Altitude History

Altitude vs Time

uPlot chart will show altitude changes over time

Two-Line Element Set

1 58066U 23158R 25260.03387095 .00001071 00000-0 94341-4 0 9998
2 58066 43.0031 253.5305 0001170 272.4554 87.6155 15.02531688107413
Epoch: Sep 17, 2025 • Age: 19 hours

Current Status

Altitude 560.1 km
Velocity 7.58 km/s
Sub-Earth Point -8.37°S, 55.39°W
Launch Date Oct 13, 2023
Age 1.9 years
Type internet

Technical Details

Classification Payload
Mass 730.00 kg
Dry Mass 700.00 kg
Total Mass 730.00 kg
Length 0.30 m
Diameter 4.10 m
Span 29.00 m
Shape Box + pan
Manufacturer SPXS
Bus Type Starlink V2M
Phase Status In Orbit
Owner/State SPXS/US

Large Constellations

Loading constellations...